Location: Unspecified
(0.0000°N, 0.0000°E)
Time: 04:43:01
(UTC+00:00)

CUTE 1.7 + AOD 2 - Pass Details

Date: 17 May 2026
Orbit: 531 x 545 km, 97.8° (Epoch: 11 June)

Event Time Altitude Azimuth Distance (km) Brightness Sun altitude
Rises 04:25:23 0° 0° (N) 2,656 ? -21.4°
Reaches altitude 10° 04:27:33 10° 353° (N) 1,770 ? -20.9°
Enters shadow 04:30:29 38° 311° (NW) 820 ? -20.2°
